Location: Newark
(50.0336°N, 22.0047°E)
Time: 21:02:13
(UTC+00:00)

N. Korean satellite - Pass Details

Date: 26 January 2020
Orbit: 456 x 505 km, 97.2° (Epoch: 26 February)

Event Time Altitude Azimuth Distance (km) Brightness Sun altitude
Rises 03:42:02 0° 23° (NNE) 2,539 10.5 -24.3°
Reaches altitude 10° 03:44:22 10° 38° (NE) 1,664 9.7 -23.9°
Maximum altitude 03:47:21 25° 94° (E) 1,022 8.9 -23.4°
Drops below altitude 10° 03:50:23 10° 152° (SSE) 1,676 9.6 -22.9°
Sets 03:52:43 0° 165° (SSE) 2,560 10.5 -22.6°
